Cloud_Cover
0 0 0 38 99 5 81 27 17 100 97 99 100 76 1 0 0 0 0 0 0 21
0 0 0 0 5 4 18 39 89 100 100 100 100 91 57 0 0 0 0 0 0 2
0 0 0 0 0 0 0 0 59 100 100 100 100 52 94 9 2 0 2 2 0 0
0 0 0 0 0 0 0 22 38 63 100 100 100 97 86 100 1 5 1 0 0 0
93 5 3 0 0 0 0 0 0 11 100 100 100 100 100 81 2 26 5 5 5 0
96 32 100 85 46 100 100 0 0 0 0 9 63 80 16 3 3 4 5 18 6 21
100 100 100 100 100 100 100 71 60 0 0 0 0 0 0 14 88 15 6 5 2 3
100 100 100 100 100 100 100 100 100 33 0 0 0 0 0 0 4 69 100 45 5 2
100 100 100 100 100 100 100 100 100 100 4 0 0 0 0 0 0 0 0 21 26 5
100 100 100 100 100 100 100 100 100 100 100 22 1 5 26 0 0 0 0 0 0 0
100 100 100 100 100 100 100 100 100 60 99 3 0 0 5 28 0 0 0 0 0 0
100 100 100 100 100 100 100 100 100 59 8 78 82 2 5 75 56 2 0 0 0 0
100 100 100 100 100 100 100 100 100 96 18 14 98 92 77 40 22 43 5 1 0 0
100 100 97 100 100 100 95 100 100 80 100 100 100 71 73 100 16 0 6 5 3 0